Voltar ao catálogo

STARLINK-35088

AtivoComunicaçõesVLEO
NORAD 65344·PAYLOAD·🇺🇸 United States

Lançado Aug 27, 2025 de Cape Canaveral Space Force Station

Loading…

Próximas Passagens (próximas 24 horas)

TLE

AtualizadoSource: CelesTrak SupGP

Época: Sep 14, 2026, 15:48 UTC

1 65344C 25189X   26257.65881944 -.00065626  00000+0 -19391-2 0  2572
2 65344  53.1590  47.1897 0000850  92.1869 294.2380 15.34421888    14

Acompanhe STARLINK-35088 em tempo real com AllMySat

Download on the App Store